#timestamp,LO_Frequency,Hit,StdDev 
1570258815.8,286046997.4,N
1570258835.6,286046990.5,Y
1570258855.5,286046996.4,P
1570258875.3,286046996.1,P
1570258895.2,286046994.6,P
1570258915.9,286046993.1,Y
1570258935.7,286046995.3,P
1570258955.6,286046997.2,P
1570258975.4,286046999.6,N
1570258995.2,286046999.4,N
1570259015.1,286046999.5,N
1570259016.0,286046999.5,N
1570259035.8,286046997.5,N
1570259055.7,286046998.5,N
1570259075.5,286047000.8,N
1570259095.3,286046998.2,N
1570259115.2,286047002.5,N
1570259135.0,286047000.0,N
1570259135.9,286047000.0,N
1570259155.7,286047000.8,N
1570259175.6,286047001.2,N
1570259195.4,286047000.3,N
1570259215.3,286047000.1,N
1570259235.1,286047000.6,N
1570259236.0,286047000.6,N
1570259255.8,286046998.6,N
1570259275.7,286047000.6,N
1570259295.5,286046999.2,N
1570259315.4,286046999.5,N
1570259335.2,286046997.9,N
1570259355.0,286046999.7,N
1570259355.9,286046999.7,N
1570259375.8,286046998.1,N
1570259395.6,286046998.1,N
1570259415.4,286046994.9,Y
1570259435.3,286046997.5,P
1570259455.1,286046993.8,P
1570259475.9,286046991.7,P
1570259495.7,286046994.6,N
1570259515.5,286046993.5,N
1570259535.4,286046997.4,N
1570259555.2,286047000.2,N
1570259575.0,286047001.1,N
1570259575.9,286047001.1,N
1570259595.8,286046998.5,N
1570259615.6,286047004.4,N
1570259635.5,286047003.0,N
1570259655.3,286047004.3,N
1570259675.1,286047001.9,N
1570259695.9,286047002.1,N
1570259715.7,286047001.5,N
1570259735.5,286047002.1,N
1570259755.4,286047003.9,N
1570259775.2,286047002.3,N
1570259795.1,286047000.1,N
1570259796.0,286047000.1,N
1570259815.8,286047000.0,N
1570259835.6,286047002.1,N
1570259855.5,286047001.4,N
1570259875.3,286047001.7,N
1570259895.1,286047000.8,N
1570259915.9,286046998.3,N
1570259935.7,286047001.0,N
1570259955.6,286046999.8,N
1570259975.4,286047002.4,N
1570259995.2,286047004.4,N
1570260015.1,286047000.1,N
1570260016.0,286047000.1,N
1570260035.8,286046999.6,N
1570260055.6,286046999.6,N
1570260075.5,286046999.1,N
1570260095.3,286046998.6,N
1570260115.1,286047001.2,N
1570260135.9,286046997.7,N
1570260155.7,286046996.3,N
1570260175.6,286046995.1,N
1570260195.4,286046995.8,N
1570260215.2,286046998.7,N
1570260235.1,286046999.0,N
1570260236.0,286046999.0,N
1570260255.8,286046997.8,N
1570260275.7,286046998.8,N
1570260295.5,286046996.7,N
1570260315.3,286046995.3,N
1570260335.2,286046998.4,N
1570260355.9,286046998.2,N
1570260375.7,286046997.7,N
1570260395.6,286046999.1,N
1570260415.4,286046999.0,N
1570260435.3,286046993.6,Y
1570260455.1,286046995.1,P
1570260456.0,286046995.1,N
1570260475.8,286046993.5,P
1570260495.7,286046996.3,N
1570260515.5,286046997.6,N
1570260535.3,286046999.2,N
1570260555.2,286046998.4,N
1570260575.0,286046999.9,N
1570260575.9,286046999.9,N
1570260595.8,286047001.2,N
1570260615.6,286046999.9,N
1570260635.4,286047000.2,N
1570260655.3,286047003.8,N
1570260675.1,286047002.2,N
1570260695.8,286046999.9,N
1570260715.7,286046998.2,N
1570260735.5,286046998.2,N
1570260755.4,286046997.0,N
1570260775.2,286047004.2,N
1570260795.0,286047003.6,N
1570260795.9,286047003.6,N
1570260815.8,286046999.7,N
1570260835.6,286047001.1,N
1570260855.4,286047002.0,N
1570260875.3,286047003.2,N
1570260895.1,286046998.2,N
1570260915.9,286046997.6,N
1570260935.7,286046999.4,N
1570260955.5,286047001.2,N
1570260975.4,286046995.3,N
1570260995.2,286046999.5,N
1570261015.0,286046996.3,N
1570261016.0,286046996.3,N
1570261035.8,286046996.5,N
1570261055.6,286046997.2,N
1570261075.5,286046995.2,N
1570261095.3,286046996.8,N
1570261115.1,286046993.7,N
1570261135.9,286046995.7,N
1570261155.7,286046995.5,N
1570261175.6,286046995.0,N
1570261195.4,286046997.0,N
1570261215.2,286047001.0,N
1570261235.1,286047002.1,N
1570261236.0,286047002.1,N
1570261255.8,286047000.1,N
1570261275.6,286047000.3,N
1570261295.5,286047000.0,N
1570261315.3,286047004.3,N
1570261335.2,286047001.8,N
1570261355.9,286046999.8,N
1570261375.7,286047002.1,N
1570261395.6,286047002.5,N
1570261415.4,286047000.9,N
1570261435.2,286047002.1,N
1570261455.1,286047003.0,N
1570261456.0,286047003.0,N
1570261475.8,286047007.1,N
1570261495.7,286047005.4,N
1570261515.5,286047003.4,N
1570261535.3,286047006.0,N
1570261555.2,286047003.7,N
1570261575.0,286047001.0,N
1570261575.9,286047001.0,N
1570261595.7,286046999.3,N
1570261615.6,286046998.2,N
1570261635.4,286046998.3,N
1570261655.3,286046996.9,N
1570261675.1,286046995.2,N
1570261676.0,286046995.2,N
1570261695.8,286046995.4,N
1570261715.7,286046995.2,N
1570261735.5,286046995.0,N
1570261755.4,286046998.3,N
1570261775.2,286046999.6,N
1570261795.0,286046997.4,N
1570261795.9,286046997.4,N
1570261815.8,286046996.8,N
1570261835.6,286046998.5,N
1570261855.4,286046997.5,N
1570261875.3,286046997.3,N
1570261895.1,286046999.6,N
1570261915.9,286046995.8,N
1570261935.7,286046995.3,N
1570261955.5,286046993.7,N
1570261975.4,286046996.3,N
1570261995.2,286046995.3,N
1570262015.0,286046998.0,N
1570262015.9,286046998.0,N
1570262035.8,286046995.4,N
1570262055.6,286046993.9,N
1570262075.5,286046994.3,N
1570262095.3,286046992.1,Y
1570262115.1,286047001.0,P
1570262135.9,286047002.5,N
1570262155.7,286047005.5,N
1570262175.5,286047004.6,N
1570262195.4,286047005.0,N
1570262215.2,286047002.1,N
1570262235.1,286047001.0,N
1570262236.0,286047001.0,N
1570262255.8,286047002.2,N
1570262275.6,286046998.5,N
1570262295.5,286046997.2,N
1570262315.3,286046995.9,N
1570262335.1,286046996.4,N
1570262355.9,286046993.0,N
1570262375.7,286046990.2,N
1570262395.6,286046991.9,N
